Home   Weather   Noumea   Past weeks

Flag for New Caledonia Past Weather in Noumea, New Caledonia, New Caledonia — Yesterday and Last 2 Weeks

Now
66 °F

Passing clouds.


Feels Like: 66 °F
Forecast: 65 / 74 °F
Wind: 9 mph from Southeast

Location: La Tontouta Nlle-Caledonie

Current Time: Aug 30, 2016 at 10:13:28 PM

Latest Report: Aug 30, 2016 at 9:30 PM


Visibility: N/A

Pressure: 30.21 "Hg

Humidity: 73%

Dew Point: 57 °F

Location of NoumeaLocation

Past Weather in Noumea — Graph

°F

Noumea Temperature Yesterday

Maximum temperature yesterday: 77 °F (at 12:30 PM)
Minimum temperature yesterday: 61 °F (at 6:30 AM)
Average temperature yesterday: 68 °F

High & Low Weather Summary for the Past Weeks

 TemperatureHumidityPressure
High86 °F (Aug 25, 1:30 PM)100% (Aug 26, 2:30 PM)30.18 "Hg (Aug 26, 2:30 PM)
Low54 °F (Aug 20, 2:30 AM)33% (Aug 17, 2:00 PM)29.86 "Hg (Aug 25, 3:00 PM)
Average68 °F73%30.02 "Hg
* Reported Aug 15 9:00 PM — Aug 30 9:00 PM, Noumea, Weather by CustomWeather, © 2016

Note: Actual official high and low records may vary slightly from our data, if they occured in-between our weather recording intervals... More about our weather records

Advertising

Noumea Weather History for the Previous 24 Hours

Scroll right to see more
 ConditionsComfort  
Time TempWeatherWind HumidityBarometerVisibility
9:00 PM
Tue, Aug 30
66 °FPassing clouds.13 mph73%30.18 "HgN/A
8:30 PM68 °FPassing clouds.14 mph73%30.18 "HgN/A
8:00 PM68 °FPassing clouds.13 mph73%30.18 "HgN/A
7:30 PM68 °FMostly cloudy.12 mph73%30.18 "HgN/A
7:00 PM68 °FPartly cloudy.8 mph78%30.15 "HgN/A
6:30 PM68 °FPassing clouds.12 mph78%30.15 "HgN/A
6:00 PM68 °FClear.15 mph73%30.12 "Hg10 mi
5:30 PM70 °FPassing clouds.16 mph69%30.12 "HgN/A
5:00 PM70 °FPassing clouds.15 mph69%30.12 "HgN/A
4:30 PM72 °FBroken clouds.14 mph69%30.12 "HgN/A
4:00 PM72 °FPartly sunny.17 mph65%30.12 "HgN/A
3:30 PM72 °FCloudy.17 mph65%30.12 "HgN/A
3:00 PM73 °FPartly sunny.17 mph65%30.09 "HgN/A
2:30 PM75 °FScattered clouds.17 mph61%30.12 "HgN/A
2:00 PM73 °FBroken clouds.18 mph65%30.12 "HgN/A
1:30 PM73 °FPartly sunny.15 mph69%30.12 "HgN/A
1:00 PM75 °FBroken clouds.12 mph61%30.12 "HgN/A
12:30 PM73 °FPartly sunny.14 mph65%30.12 "HgN/A
12:00 PM75 °FScattered clouds.16 mph57%30.12 "HgN/A
11:30 AM72 °FPartly sunny.14 mph69%30.15 "HgN/A
11:00 AM73 °FBroken clouds.14 mph65%30.15 "HgN/A
10:30 AM72 °FPartly sunny.12 mph69%30.15 "HgN/A
10:00 AM72 °FPartly sunny.13 mph69%30.15 "HgN/A
9:30 AM70 °FScattered clouds.12 mph69%30.18 "HgN/A
9:00 AM72 °FPassing clouds.9 mph69%30.18 "HgN/A
8:30 AM68 °FSunny.2 mph78%30.15 "Hg10 mi
8:00 AM64 °FPassing clouds.No wind83%30.15 "HgN/A
7:30 AM61 °FPartly sunny.2 mph88%30.15 "HgN/A
7:00 AM59 °FSunny.No wind88%30.15 "Hg10 mi
6:30 AM59 °FSunny.2 mph88%30.15 "Hg10 mi
6:00 AM61 °FSunny.No wind83%30.12 "Hg10 mi
5:30 AM59 °FSunny.No wind88%30.12 "Hg10 mi
5:00 AM59 °FPassing clouds.No wind88%30.12 "HgN/A
4:30 AM61 °FClear.No wind83%30.09 "Hg10 mi
4:00 AM61 °FPassing clouds.No wind88%30.09 "HgN/A
3:30 AM61 °FPassing clouds.No wind88%30.09 "HgN/A
3:00 AM59 °FPassing clouds.2 mph94%30.09 "HgN/A
2:30 AM61 °FPassing clouds.1 mph88%30.12 "HgN/A
2:00 AM61 °FPartly cloudy.3 mph88%30.12 "HgN/A
1:30 AM61 °FPassing clouds.2 mph88%30.12 "HgN/A
1:00 AM61 °FPassing clouds.No wind88%30.12 "HgN/A
12:30 AM63 °FPassing clouds.2 mph88%30.12 "HgN/A
12:00 AM63 °FPassing clouds.No wind88%30.12 "HgN/A
11:30 PM
Mon, Aug 29
64 °FPassing clouds.No wind83%30.12 "HgN/A
11:00 PM64 °FPassing clouds.2 mph83%30.12 "HgN/A
10:30 PM64 °FPassing clouds.No wind88%30.15 "HgN/A
10:00 PM64 °FPassing clouds.2 mph83%30.12 "HgN/A
Weather by CustomWeather, © 2016

See weather overviewHow to use our weather pages